When you browse on this site, cookies collect data to enhance your experience and personalize the content and advertising you see.
Visit our Privacy Policy to learn more. By continuing to use the site, you agree to this use of cookies and data.
  • In Hungary
  • List of Countries
  • For 7 days
  • Water Temperature
  • Weather Map
  • News
  • Weather Widgets
  • user-avatar
    Login

    Hourly Weather Stepnoe

    Today, 17 October, Thursday

    Time Temperature Precipitation Wind Pressure Humidity
    00:00 +9°C° 0 mm 5 mps 746 mmHg 84%
    01:00 +9°C° 0 mm 5 mps 746 mmHg 86%
    02:00 +9°C° 0 mm 5 mps 746 mmHg 88%
    03:00 +9°C° 0 mm 5 mps 746 mmHg 89%
    04:00 +8°C° 0 mm 5 mps 746 mmHg 91%
    05:00 +8°C° 0 mm 5 mps 746 mmHg 92%
    06:00 +9°C° 0 mm 5 mps 745 mmHg 91%
    07:00 +9°C° 0 mm 5 mps 745 mmHg 89%
    08:00 +10°C° 0 mm 5 mps 745 mmHg 88%
    09:00 +13°C° 0 mm 5 mps 745 mmHg 83%
    10:00 +14°C° 0 mm 5 mps 745 mmHg 79%
    11:00 +15°C° 0 mm 5 mps 745 mmHg 74%
    12:00 +16°C° 0 mm 5 mps 745 mmHg 70%
    13:00 +17°C° 0 mm 6 mps 744 mmHg 67%
    14:00 +19°C° 0 mm 6 mps 744 mmHg 63%
    15:00 +17°C° 0 mm 5 mps 744 mmHg 68%
    16:00 +15°C° 0 mm 4 mps 743 mmHg 73%
    17:00 +14°C° 0 mm 4 mps 743 mmHg 78%
    18:00 +14°C° 0 mm 4 mps 743 mmHg 80%
    19:00 +13°C° 0 mm 4 mps 743 mmHg 82%
    20:00 +12°C° 0 mm 4 mps 743 mmHg 84%
    21:00 +12°C° 0 mm 3 mps 743 mmHg 83%
    22:00 +11°C° 0 mm 3 mps 743 mmHg 82%
    23:00 +11°C° 0 mm 3 mps 743 mmHg 82%

    Tomorrow, 18 October, Friday

    Time Temperature Precipitation Wind Pressure Humidity
    00:00 +10°C° 0 mm 3 mps 743 mmHg 84%
    01:00 +10°C° 0 mm 3 mps 743 mmHg 86%
    02:00 +10°C° 0 mm 3 mps 743 mmHg 88%
    03:00 +9°C° 0 mm 2 mps 743 mmHg 89%
    04:00 +9°C° 0 mm 2 mps 743 mmHg 90%
    05:00 +9°C° 0 mm 2 mps 743 mmHg 91%
    06:00 +9°C° 0 mm 2 mps 743 mmHg 88%
    07:00 +10°C° 0 mm 2 mps 744 mmHg 86%
    08:00 +10°C° 0 mm 2 mps 744 mmHg 83%
    09:00 +12°C° 0 mm 3 mps 744 mmHg 79%
    10:00 +13°C° 0 mm 3 mps 744 mmHg 74%
    11:00 +14°C° 0 mm 3 mps 744 mmHg 69%
    12:00 +16°C° 0 mm 3 mps 744 mmHg 68%
    13:00 +16°C° 0 mm 3 mps 744 mmHg 67%
    14:00 +16°C° 0 mm 3 mps 744 mmHg 65%
    15:00 +15°C° 0 mm 2 mps 744 mmHg 70%
    16:00 +14°C° 0 mm 2 mps 744 mmHg 75%
    17:00 +13°C° 0 mm 1 mps 744 mmHg 80%
    18:00 +13°C° 0 mm 1 mps 744 mmHg 82%
    19:00 +12°C° 0 mm 1 mps 745 mmHg 84%
    20:00 +12°C° 0 mm 1 mps 745 mmHg 87%
    21:00 +11°C° 0 mm 1 mps 745 mmHg 87%
    22:00 +10°C° 0 mm 0 mps 745 mmHg 88%
    23:00 +10°C° 0 mm 0 mps 745 mmHg 89%

    Day after tomorrow, 19 October, Saturday

    Time Temperature Precipitation Wind Pressure Humidity
    00:00 +10°C° 0 mm 0 mps 745 mmHg 89%
    01:00 +10°C° 0 mm 0 mps 745 mmHg 90%
    02:00 +9°C° 0 mm 0 mps 745 mmHg 90%
    03:00 +9°C° 0 mm 0 mps 745 mmHg 90%
    04:00 +9°C° 0 mm 0 mps 746 mmHg 90%
    05:00 +10°C° 0 mm 1 mps 746 mmHg 90%
    06:00 +11°C° 0 mm 1 mps 746 mmHg 88%
    07:00 +11°C° 0 mm 1 mps 746 mmHg 87%
    08:00 +12°C° 0 mm 1 mps 746 mmHg 85%
    09:00 +13°C° 0 mm 1 mps 747 mmHg 80%
    10:00 +14°C° 0 mm 2 mps 747 mmHg 75%
    11:00 +15°C° 0 mm 2 mps 747 mmHg 69%
    12:00 +16°C° 0 mm 2 mps 747 mmHg 69%
    13:00 +16°C° 0 mm 2 mps 747 mmHg 68%
    14:00 +16°C° 0 mm 2 mps 746 mmHg 67%
    15:00 +15°C° 0 mm 2 mps 746 mmHg 71%
    16:00 +14°C° 0 mm 2 mps 746 mmHg 76%
    17:00 +13°C° 0 mm 2 mps 746 mmHg 80%
    18:00 +13°C° 0 mm 2 mps 747 mmHg 81%
    19:00 +12°C° 0 mm 2 mps 747 mmHg 83%
    20:00 +12°C° 0 mm 2 mps 747 mmHg 84%
    21:00 +12°C° 0 mm 2 mps 747 mmHg 84%
    22:00 +10°C° 0 mm 2 mps 747 mmHg 84%
    23:00 +10°C° 0 mm 2 mps 747 mmHg 84%

    20 October, Sunday

    Time Temperature Precipitation Wind Pressure Humidity
    00:00 +10°C° 0 mm 2 mps 747 mmHg 85%
    01:00 +10°C° 0 mm 2 mps 747 mmHg 85%
    02:00 +9°C° 0 mm 2 mps 747 mmHg 85%
    03:00 +9°C° 0 mm 2 mps 747 mmHg 86%
    04:00 +9°C° 0 mm 2 mps 747 mmHg 87%
    05:00 +9°C° 0 mm 2 mps 747 mmHg 88%
    06:00 +9°C° 0 mm 3 mps 747 mmHg 86%
    07:00 +10°C° 0 mm 3 mps 747 mmHg 84%
    08:00 +11°C° 0 mm 3 mps 748 mmHg 82%
    09:00 +12°C° 0 mm 3 mps 748 mmHg 78%
    10:00 +13°C° 0 mm 3 mps 748 mmHg 73%
    11:00 +15°C° 0 mm 4 mps 748 mmHg 69%
    12:00 +15°C° 0 mm 4 mps 748 mmHg 67%
    13:00 +17°C° 0 mm 4 mps 747 mmHg 65%
    14:00 +18°C° 0 mm 4 mps 747 mmHg 63%
    15:00 +16°C° 0 mm 3 mps 747 mmHg 68%
    16:00 +14°C° 0 mm 3 mps 747 mmHg 73%
    17:00 +13°C° 0 mm 3 mps 747 mmHg 78%
    18:00 +12°C° 0 mm 3 mps 747 mmHg 79%
    19:00 +12°C° 0 mm 3 mps 747 mmHg 80%
    20:00 +12°C° 0 mm 3 mps 747 mmHg 82%
    21:00 +11°C° 0 mm 3 mps 747 mmHg 82%
    22:00 +11°C° 0 mm 3 mps 747 mmHg 82%
    23:00 +11°C° 0 mm 3 mps 747 mmHg 82%

    21 October, Monday

    Time Temperature Precipitation Wind Pressure Humidity
    00:00 +10°C° 0 mm 3 mps 747 mmHg 82%
    01:00 +10°C° 0 mm 3 mps 747 mmHg 82%
    02:00 +10°C° 0 mm 3 mps 747 mmHg 82%
    03:00 +10°C° 0 mm 3 mps 747 mmHg 82%
    04:00 +10°C° 0 mm 3 mps 747 mmHg 82%
    05:00 +9°C° 0 mm 3 mps 747 mmHg 81%
    06:00 +10°C° 0 mm 4 mps 747 mmHg 78%
    07:00 +11°C° 0 mm 4 mps 747 mmHg 75%
    08:00 +11°C° 0 mm 4 mps 747 mmHg 72%
    09:00 +13°C° 0 mm 4 mps 747 mmHg 67%
    10:00 +14°C° 0 mm 4 mps 747 mmHg 63%
    11:00 +16°C° 0 mm 5 mps 747 mmHg 58%
    12:00 +16°C° 0 mm 5 mps 747 mmHg 57%
    13:00 +17°C° 0 mm 5 mps 747 mmHg 56%
    14:00 +17°C° 0 mm 5 mps 746 mmHg 55%
    15:00 +17°C° 0 mm 4 mps 746 mmHg 61%
    16:00 +14°C° 0 mm 4 mps 746 mmHg 66%
    17:00 +13°C° 0 mm 3 mps 746 mmHg 71%
    18:00 +13°C° 0 mm 3 mps 746 mmHg 73%
    19:00 +12°C° 0 mm 3 mps 746 mmHg 74%
    20:00 +12°C° 0 mm 4 mps 746 mmHg 76%
    21:00 +12°C° 0 mm 4 mps 745 mmHg 77%
    22:00 +11°C° 0 mm 4 mps 745 mmHg 78%
    23:00 +11°C° 0 mm 4 mps 745 mmHg 78%

    22 October, Tuesday

    Time Temperature Precipitation Wind Pressure Humidity
    00:00 +11°C° 0 mm 4 mps 745 mmHg 79%
    01:00 +11°C° 0 mm 3 mps 745 mmHg 80%
    02:00 +10°C° 0 mm 3 mps 745 mmHg 80%
    03:00 +10°C° 0 mm 3 mps 744 mmHg 81%
    04:00 +10°C° 0 mm 4 mps 744 mmHg 81%
    05:00 +10°C° 0 mm 4 mps 744 mmHg 81%
    06:00 +10°C° 0 mm 4 mps 744 mmHg 78%
    07:00 +11°C° 0 mm 4 mps 744 mmHg 76%
    08:00 +10°C° 0 mm 5 mps 744 mmHg 74%
    09:00 +13°C° 0 mm 5 mps 744 mmHg 70%
    10:00 +14°C° 0 mm 6 mps 743 mmHg 65%
    11:00 +15°C° 0 mm 6 mps 743 mmHg 61%
    12:00 +16°C° 0 mm 6 mps 743 mmHg 59%
    13:00 +17°C° 0 mm 6 mps 742 mmHg 58%
    14:00 +17°C° 0 mm 7 mps 742 mmHg 56%
    15:00 +17°C° 0 mm 6 mps 742 mmHg 60%
    16:00 +16°C° 0 mm 6 mps 741 mmHg 63%
    17:00 +15°C° 0 mm 5 mps 741 mmHg 66%
    18:00 +14°C° 0 mm 5 mps 741 mmHg 69%
    19:00 +14°C° 0 mm 5 mps 741 mmHg 72%
    20:00 +14°C° 0 mm 5 mps 741 mmHg 75%
    21:00 +13°C° 0 mm 5 mps 741 mmHg 77%
    22:00 +13°C° 0 mm 4 mps 741 mmHg 79%
    23:00 +13°C° 0 mm 4 mps 740 mmHg 81%
    Show more